Time,TemperatureF,DewpointF,PressureIn,WindDirection,WindDirectionDegrees,WindSpeedMPH,WindSpeedGustMPH,Humidity,HourlyPrecipIn,Conditions,Clouds,dailyrainin,SoftwareType,DateUTC
2013-08-02 00:01:00,62.6,54.5,29.84,SE,135,0.7,1.1,75,0.00,,,0.00,WUHU216HW,2013-08-02 05:01:00,
2013-08-02 00:06:00,62.8,55.1,29.83,SE,135,1.6,1.8,76,0.00,,,0.00,WUHU216HW,2013-08-02 05:06:00,
2013-08-02 00:11:00,62.8,55.1,29.83,SE,135,0.9,2.0,76,0.00,,,0.00,WUHU216HW,2013-08-02 05:11:00,
2013-08-02 00:16:00,63.0,54.9,29.83,SW,225,1.8,2.0,75,0.00,,,0.00,WUHU216HW,2013-08-02 05:16:00,
2013-08-02 00:21:00,63.0,55.3,29.84,SSW,203,2.0,2.2,76,0.00,,,0.00,WUHU216HW,2013-08-02 05:21:00,
2013-08-02 00:26:00,63.2,55.4,29.84,SW,225,6.0,6.0,76,0.00,,,0.00,WUHU216HW,2013-08-02 05:26:00,
2013-08-02 00:31:00,64.1,56.3,29.84,SW,225,4.3,6.9,76,0.00,,,0.00,WUHU216HW,2013-08-02 05:31:00,
2013-08-02 00:36:00,64.6,56.2,29.84,SW,225,5.4,10.3,74,0.00,,,0.00,WUHU216HW,2013-08-02 05:36:00,
2013-08-02 00:41:00,65.0,56.5,29.84,SW,225,6.9,10.3,74,0.00,,,0.00,WUHU216HW,2013-08-02 05:41:00,
2013-08-02 00:46:00,65.2,56.7,29.84,SW,225,6.3,7.2,74,0.00,,,0.00,WUHU216HW,2013-08-02 05:46:00,
2013-08-02 00:51:00,65.2,56.7,29.83,WSW,248,6.0,7.6,74,0.00,,,0.00,WUHU216HW,2013-08-02 05:51:00,
2013-08-02 00:56:00,65.2,57.4,29.83,SSW,203,7.2,8.1,76,0.00,,,0.00,WUHU216HW,2013-08-02 05:56:00,
2013-08-02 01:00:00,65.2,57.8,29.83,SW,225,5.6,9.8,77,0.00,,,0.00,WUHU216HW,2013-08-02 06:00:00,
2013-08-02 01:05:00,65.2,57.8,29.83,SW,225,8.1,9.8,77,0.00,,,0.00,WUHU216HW,2013-08-02 06:05:00,
2013-08-02 01:11:00,65.2,58.2,29.83,SW,225,5.1,8.5,78,0.00,,,0.00,WUHU216HW,2013-08-02 06:11:00,
2013-08-02 01:16:00,65.2,58.2,29.83,SW,225,8.1,8.3,78,0.00,,,0.00,WUHU216HW,2013-08-02 06:16:00,
2013-08-02 01:21:00,65.0,58.0,29.82,SSW,203,4.0,8.3,78,0.00,,,0.00,WUHU216HW,2013-08-02 06:21:00,
2013-08-02 01:26:00,65.0,58.3,29.82,SW,225,5.4,8.1,79,0.00,,,0.00,WUHU216HW,2013-08-02 06:26:00,
2013-08-02 01:31:00,64.8,57.8,29.82,SW,225,6.3,7.4,78,0.00,,,0.00,WUHU216HW,2013-08-02 06:31:00,
2013-08-02 01:35:00,64.8,58.2,29.82,SW,225,4.3,7.4,79,0.00,,,0.00,WUHU216HW,2013-08-02 06:35:00,
2013-08-02 01:40:00,64.8,58.2,29.82,SSW,203,6.9,6.9,79,0.00,,,0.00,WUHU216HW,2013-08-02 06:40:00,
2013-08-02 01:45:00,64.8,58.2,29.81,SW,225,4.7,7.4,79,0.00,,,0.00,WUHU216HW,2013-08-02 06:45:00,
2013-08-02 01:50:00,64.8,58.5,29.81,SW,225,4.0,7.4,80,0.00,,,0.00,WUHU216HW,2013-08-02 06:50:00,
2013-08-02 01:55:00,64.6,58.7,29.81,SSW,203,4.9,5.4,81,0.00,,,0.00,WUHU216HW,2013-08-02 06:55:00,
2013-08-02 02:00:00,64.4,58.5,29.81,SW,225,3.4,5.4,81,0.00,,,0.00,WUHU216HW,2013-08-02 07:00:00,
2013-08-02 02:05:00,64.4,58.5,29.80,SW,225,3.4,5.4,81,0.00,,,0.00,WUHU216HW,2013-08-02 07:05:00,
2013-08-02 02:10:00,64.1,57.8,29.80,SSW,203,3.4,4.7,80,0.00,,,0.00,WUHU216HW,2013-08-02 07:10:00,
2013-08-02 02:15:00,63.9,58.0,29.80,SW,225,4.3,5.4,81,0.00,,,0.00,WUHU216HW,2013-08-02 07:15:00,
2013-08-02 02:20:00,63.9,57.6,29.80,SW,225,2.5,5.4,80,0.00,,,0.00,WUHU216HW,2013-08-02 07:20:00,
2013-08-02 02:25:00,63.7,57.8,29.80,SW,225,4.7,4.7,81,0.00,,,0.00,WUHU216HW,2013-08-02 07:25:00,
2013-08-02 02:30:00,63.9,58.0,29.80,SW,225,4.7,6.9,81,0.00,,,0.00,WUHU216HW,2013-08-02 07:30:00,
2013-08-02 02:35:00,63.9,58.0,29.80,SSW,203,5.4,7.4,81,0.00,,,0.00,WUHU216HW,2013-08-02 07:35:00,
2013-08-02 02:40:00,63.9,58.0,29.80,SSE,158,4.5,7.4,81,0.00,,,0.00,WUHU216HW,2013-08-02 07:40:00,
2013-08-02 02:45:00,64.1,58.2,29.79,SW,225,5.1,6.9,81,0.00,,,0.00,WUHU216HW,2013-08-02 07:45:00,
2013-08-02 02:50:00,64.1,58.5,29.79,SSW,203,4.3,6.9,82,0.00,,,0.00,WUHU216HW,2013-08-02 07:50:00,
2013-08-02 02:55:00,64.3,58.7,29.79,South,180,4.7,5.8,82,0.00,,,0.00,WUHU216HW,2013-08-02 07:55:00,
2013-08-02 03:00:00,64.3,58.3,29.79,SSW,203,4.9,6.9,81,0.00,,,0.00,WUHU216HW,2013-08-02 08:00:00,
2013-08-02 03:05:00,64.4,58.5,29.78,SSW,203,6.0,6.9,81,0.00,,,0.00,WUHU216HW,2013-08-02 08:05:00,
2013-08-02 03:10:00,64.4,58.1,29.78,SSE,158,7.2,7.4,80,0.00,,,0.00,WUHU216HW,2013-08-02 08:10:00,
2013-08-02 03:15:00,64.4,58.1,29.79,SW,225,4.7,7.4,80,0.00,,,0.00,WUHU216HW,2013-08-02 08:15:00,
2013-08-02 03:20:00,64.4,58.1,29.79,SW,225,5.1,7.2,80,0.00,,,0.00,WUHU216HW,2013-08-02 08:20:00,
2013-08-02 03:25:00,64.4,57.8,29.79,SSW,203,5.4,6.9,79,0.00,,,0.00,WUHU216HW,2013-08-02 08:25:00,
2013-08-02 03:30:00,64.6,58.0,29.79,SSW,203,4.7,7.8,79,0.00,,,0.00,WUHU216HW,2013-08-02 08:30:00,
2013-08-02 03:35:00,64.8,57.8,29.80,SW,225,7.6,8.3,78,0.00,,,0.00,WUHU216HW,2013-08-02 08:35:00,
2013-08-02 03:40:00,64.8,57.8,29.81,WSW,248,7.2,8.3,78,0.00,,,0.00,WUHU216HW,2013-08-02 08:40:00,
2013-08-02 03:45:00,64.8,58.5,29.80,SW,225,6.9,7.6,80,0.00,,,0.00,WUHU216HW,2013-08-02 08:45:00,
2013-08-02 03:50:00,64.4,58.9,29.79,SSW,203,5.8,7.6,82,0.00,,,0.00,WUHU216HW,2013-08-02 08:50:00,
2013-08-02 03:55:00,64.1,58.5,29.80,SW,225,5.1,7.6,82,0.00,,,0.00,WUHU216HW,2013-08-02 08:55:00,
2013-08-02 04:00:00,64.1,58.5,29.79,WSW,248,6.3,7.8,82,0.00,,,0.00,WUHU216HW,2013-08-02 09:00:00,
2013-08-02 04:05:00,64.1,58.2,29.80,SW,225,6.3,8.1,81,0.00,,,0.00,WUHU216HW,2013-08-02 09:05:00,
2013-08-02 04:10:00,64.1,58.5,29.80,SSW,203,5.4,8.3,82,0.00,,,0.00,WUHU216HW,2013-08-02 09:10:00,
2013-08-02 04:15:00,64.1,58.5,29.80,SW,225,4.0,8.3,82,0.00,,,0.00,WUHU216HW,2013-08-02 09:15:00,
2013-08-02 04:20:00,63.9,58.0,29.80,SSW,203,3.6,6.9,81,0.00,,,0.00,WUHU216HW,2013-08-02 09:20:00,
2013-08-02 04:25:00,63.9,58.6,29.80,WSW,248,4.0,6.5,83,0.00,,,0.00,WUHU216HW,2013-08-02 09:25:00,
2013-08-02 04:30:00,63.9,58.6,29.80,SW,225,6.0,6.7,83,0.00,,,0.00,WUHU216HW,2013-08-02 09:30:00,
2013-08-02 04:35:00,64.1,58.8,29.80,SW,225,4.9,6.7,83,0.00,,,0.00,WUHU216HW,2013-08-02 09:35:00,
2013-08-02 04:40:00,64.1,58.8,29.79,SSW,203,3.6,6.5,83,0.00,,,0.00,WUHU216HW,2013-08-02 09:40:00,
2013-08-02 04:45:00,64.3,59.0,29.79,SSW,203,6.3,6.5,83,0.02,,,0.02,WUHU216HW,2013-08-02 09:45:00,
2013-08-02 04:50:00,64.3,59.7,29.78,SW,225,8.5,11.0,85,0.02,,,0.02,WUHU216HW,2013-08-02 09:50:00,
2013-08-02 04:55:00,63.9,59.0,29.78,SSW,203,9.4,11.0,84,0.02,,,0.02,WUHU216HW,2013-08-02 09:55:00,
2013-08-02 05:00:00,63.7,58.8,29.78,SW,225,6.3,10.7,84,0.02,,,0.02,WUHU216HW,2013-08-02 10:00:00,
2013-08-02 05:05:00,63.5,59.0,29.78,WSW,248,4.9,8.9,85,0.02,,,0.02,WUHU216HW,2013-08-02 10:05:00,
2013-08-02 05:10:00,63.4,58.8,29.78,WSW,248,3.1,6.3,85,0.02,,,0.02,WUHU216HW,2013-08-02 10:10:00,
2013-08-02 05:15:00,63.2,58.6,29.77,SW,225,6.3,6.3,85,0.02,,,0.02,WUHU216HW,2013-08-02 10:15:00,
2013-08-02 05:20:00,63.4,59.1,29.78,WSW,248,4.7,6.3,86,0.02,,,0.02,WUHU216HW,2013-08-02 10:20:00,
2013-08-02 05:25:00,63.2,59.0,29.78,WSW,248,6.3,6.7,86,0.02,,,0.02,WUHU216HW,2013-08-02 10:25:00,
2013-08-02 05:30:00,63.4,59.5,29.79,SW,225,6.3,8.5,87,0.02,,,0.02,WUHU216HW,2013-08-02 10:30:00,
2013-08-02 05:35:00,63.5,59.9,29.80,WSW,248,10.5,11.2,88,0.02,,,0.02,WUHU216HW,2013-08-02 10:35:00,
2013-08-02 05:40:00,63.7,60.1,29.80,SW,225,7.6,11.4,88,0.03,,,0.03,WUHU216HW,2013-08-02 10:40:00,
2013-08-02 05:45:00,63.7,60.1,29.78,SSW,203,3.4,11.4,88,0.09,,,0.11,WUHU216HW,2013-08-02 10:45:00,
2013-08-02 05:50:00,63.7,60.5,29.78,WSW,248,6.0,7.6,89,0.09,,,0.11,WUHU216HW,2013-08-02 10:50:00,
2013-08-02 05:55:00,63.7,60.1,29.78,SSW,203,4.5,6.7,88,0.09,,,0.11,WUHU216HW,2013-08-02 10:55:00,
2013-08-02 06:00:00,63.7,60.5,29.77,SSW,203,3.4,6.7,89,0.09,,,0.11,WUHU216HW,2013-08-02 11:00:00,
2013-08-02 06:05:00,63.7,60.5,29.78,WSW,248,5.6,6.3,89,0.09,,,0.11,WUHU216HW,2013-08-02 11:05:00,
2013-08-02 06:10:00,63.9,60.7,29.78,SSW,203,4.5,6.5,89,0.09,,,0.11,WUHU216HW,2013-08-02 11:10:00,
2013-08-02 06:15:00,64.3,61.0,29.78,SW,225,7.6,7.8,89,0.09,,,0.11,WUHU216HW,2013-08-02 11:15:00,
2013-08-02 06:20:00,64.4,61.2,29.78,SW,225,6.0,7.8,89,0.09,,,0.11,WUHU216HW,2013-08-02 11:20:00,
2013-08-02 06:25:00,64.6,61.4,29.78,SW,225,3.4,7.2,89,0.09,,,0.11,WUHU216HW,2013-08-02 11:25:00,
2013-08-02 06:30:00,64.8,61.6,29.78,WSW,248,2.9,6.3,89,0.09,,,0.11,WUHU216HW,2013-08-02 11:30:00,
2013-08-02 06:35:00,64.8,61.6,29.78,West,270,2.5,5.8,89,0.09,,,0.11,WUHU216HW,2013-08-02 11:35:00,
2013-08-02 06:40:00,65.2,61.8,29.79,WSW,248,4.0,5.4,89,0.02,,,0.11,WUHU216HW,2013-08-02 11:40:00,
2013-08-02 06:45:00,65.5,62.2,29.79,WSW,248,4.0,5.4,89,0.00,,,0.11,WUHU216HW,2013-08-02 11:45:00,
2013-08-02 06:50:00,65.7,62.0,29.79,SW,225,3.4,4.9,88,0.00,,,0.11,WUHU216HW,2013-08-02 11:50:00,
2013-08-02 06:55:00,65.5,61.8,29.79,SW,225,3.1,4.3,88,0.00,,,0.11,WUHU216HW,2013-08-02 11:55:00,
2013-08-02 07:00:00,65.5,61.8,29.80,SW,225,3.8,5.1,88,0.00,,,0.11,WUHU216HW,2013-08-02 12:00:00,
2013-08-02 07:05:00,65.5,62.2,29.80,SW,225,3.8,5.1,89,0.00,,,0.11,WUHU216HW,2013-08-02 12:05:00,
2013-08-02 07:10:00,65.3,62.0,29.80,SW,225,3.4,4.0,89,0.00,,,0.11,WUHU216HW,2013-08-02 12:10:00,
2013-08-02 07:15:00,65.3,61.8,29.80,SSW,203,2.0,3.8,88,0.00,,,0.11,WUHU216HW,2013-08-02 12:15:00,
2013-08-02 07:20:00,65.5,62.2,29.80,WSW,248,2.5,3.8,89,0.00,,,0.11,WUHU216HW,2013-08-02 12:20:00,
2013-08-02 07:25:00,65.9,62.6,29.80,SW,225,3.1,4.0,89,0.00,,,0.11,WUHU216HW,2013-08-02 12:25:00,
2013-08-02 07:30:00,66.1,62.4,29.80,WSW,248,3.8,4.7,88,0.00,,,0.11,WUHU216HW,2013-08-02 12:30:00,
2013-08-02 07:35:00,66.4,62.7,29.81,SW,225,3.6,5.4,88,0.00,,,0.11,WUHU216HW,2013-08-02 12:35:00,
2013-08-02 07:40:00,66.6,62.9,29.80,WSW,248,4.5,5.4,88,0.00,,,0.11,WUHU216HW,2013-08-02 12:40:00,
2013-08-02 07:45:00,66.6,62.9,29.80,SW,225,4.0,5.6,88,0.00,,,0.11,WUHU216HW,2013-08-02 12:45:00,
2013-08-02 07:50:00,67.0,62.9,29.80,WSW,248,6.0,6.3,87,0.00,,,0.11,WUHU216HW,2013-08-02 12:50:00,
2013-08-02 07:55:00,67.3,63.3,29.80,SW,225,4.0,6.3,87,0.00,,,0.11,WUHU216HW,2013-08-02 12:55:00,
2013-08-02 08:00:00,67.9,63.6,29.80,WSW,248,4.5,6.7,86,0.00,,,0.11,WUHU216HW,2013-08-02 13:00:00,
2013-08-02 08:05:00,68.2,63.6,29.80,SW,225,6.5,6.7,85,0.00,,,0.11,WUHU216HW,2013-08-02 13:05:00,
2013-08-02 08:10:00,68.6,63.9,29.80,WSW,248,6.0,7.2,85,0.00,,,0.11,WUHU216HW,2013-08-02 13:10:00,
2013-08-02 08:15:00,69.1,63.7,29.80,SW,225,3.4,7.2,83,0.00,,,0.11,WUHU216HW,2013-08-02 13:15:00,
2013-08-02 08:20:00,68.9,63.2,29.80,WSW,248,2.9,6.9,82,0.00,,,0.11,WUHU216HW,2013-08-02 13:20:00,
2013-08-02 08:25:00,68.8,63.1,29.81,WNW,293,3.1,6.9,82,0.00,,,0.11,WUHU216HW,2013-08-02 13:25:00,
2013-08-02 08:30:00,68.6,63.5,29.80,West,270,3.4,6.9,84,0.00,,,0.11,WUHU216HW,2013-08-02 13:30:00,
2013-08-02 08:35:00,68.8,63.4,29.81,WNW,293,5.4,8.5,83,0.00,,,0.11,WUHU216HW,2013-08-02 13:35:00,
2013-08-02 08:40:00,68.9,63.9,29.80,West,270,3.4,8.5,84,0.00,,,0.11,WUHU216HW,2013-08-02 13:40:00,
2013-08-02 08:45:00,69.5,63.7,29.81,WSW,248,4.7,8.5,82,0.00,,,0.11,WUHU216HW,2013-08-02 13:45:00,
2013-08-02 08:50:00,69.8,64.1,29.81,WSW,248,5.8,8.5,82,0.00,,,0.11,WUHU216HW,2013-08-02 13:50:00,
2013-08-02 08:55:00,70.2,64.1,29.80,West,270,2.9,9.4,81,0.00,,,0.11,WUHU216HW,2013-08-02 13:55:00,
2013-08-02 09:00:00,70.2,64.5,29.80,NW,315,4.3,9.4,82,0.00,,,0.11,WUHU216HW,2013-08-02 14:00:00,
2013-08-02 09:05:00,70.7,64.6,29.79,North,0,4.0,8.3,81,0.00,,,0.11,WUHU216HW,2013-08-02 14:05:00,
2013-08-02 09:10:00,71.3,64.8,29.79,North,0,4.9,7.6,80,0.00,,,0.11,WUHU216HW,2013-08-02 14:10:00,
2013-08-02 09:15:00,71.6,64.8,29.79,NW,315,3.6,9.4,79,0.00,,,0.11,WUHU216HW,2013-08-02 14:15:00,
2013-08-02 09:20:00,72.2,65.0,29.79,NNW,338,6.9,9.4,78,0.00,,,0.11,WUHU216HW,2013-08-02 14:20:00,
2013-08-02 09:25:00,72.0,64.4,29.79,WNW,293,11.9,16.1,77,0.00,,,0.11,WUHU216HW,2013-08-02 14:25:00,
2013-08-02 09:30:00,72.4,64.7,29.80,NW,315,6.3,16.1,77,0.00,,,0.11,WUHU216HW,2013-08-02 14:30:00,
2013-08-02 09:35:00,72.7,65.5,29.79,NNW,338,6.3,11.9,78,0.00,,,0.11,WUHU216HW,2013-08-02 14:35:00,
2013-08-02 09:40:00,73.1,65.4,29.80,NW,315,3.6,8.3,77,0.00,,,0.11,WUHU216HW,2013-08-02 14:40:00,
2013-08-02 09:45:00,73.3,66.1,29.79,WNW,293,2.7,6.9,78,0.00,,,0.11,WUHU216HW,2013-08-02 14:45:00,
2013-08-02 09:50:00,73.8,66.2,29.80,WNW,293,4.0,5.4,77,0.00,,,0.11,WUHU216HW,2013-08-02 14:50:00,
2013-08-02 09:55:00,74.3,65.9,29.80,WSW,248,2.2,5.6,75,0.00,,,0.11,WUHU216HW,2013-08-02 14:55:00,
2013-08-02 10:00:00,74.2,64.2,29.80,NNW,338,4.9,6.7,71,0.00,,,0.11,WUHU216HW,2013-08-02 15:00:00,
2013-08-02 10:05:00,74.3,64.0,29.80,NNW,338,3.6,6.7,70,0.00,,,0.11,WUHU216HW,2013-08-02 15:05:00,
2013-08-02 10:10:00,74.7,64.4,29.80,North,0,4.7,7.6,70,0.00,,,0.11,WUHU216HW,2013-08-02 15:10:00,
2013-08-02 10:15:00,75.2,63.6,29.80,NW,315,4.0,7.6,67,0.00,,,0.11,WUHU216HW,2013-08-02 15:15:00,
2013-08-02 10:20:00,75.4,63.7,29.81,NW,315,9.2,9.2,67,0.00,,,0.11,WUHU216HW,2013-08-02 15:20:00,
2013-08-02 10:25:00,75.4,62.8,29.81,NNW,338,4.7,9.4,65,0.00,,,0.11,WUHU216HW,2013-08-02 15:25:00,
2013-08-02 10:30:00,75.8,63.6,29.81,NNW,338,6.5,9.4,66,0.00,,,0.11,WUHU216HW,2013-08-02 15:30:00,
2013-08-02 10:35:00,76.1,63.1,29.81,North,0,4.9,9.2,64,0.00,,,0.11,WUHU216HW,2013-08-02 15:35:00,
2013-08-02 10:40:00,76.5,63.8,29.81,North,0,5.4,9.6,65,0.00,,,0.11,WUHU216HW,2013-08-02 15:40:00,
2013-08-02 10:45:00,76.5,63.8,29.81,NW,315,4.7,9.6,65,0.00,,,0.11,WUHU216HW,2013-08-02 15:45:00,
2013-08-02 10:50:00,77.0,63.9,29.81,SW,225,3.4,6.9,64,0.00,,,0.11,WUHU216HW,2013-08-02 15:50:00,
2013-08-02 10:55:00,77.2,63.2,29.81,North,0,7.8,8.7,62,0.00,,,0.11,WUHU216HW,2013-08-02 15:55:00,
2013-08-02 11:00:00,77.0,63.0,29.81,WNW,293,2.9,8.7,62,0.00,,,0.11,WUHU216HW,2013-08-02 16:00:00,
2013-08-02 11:05:00,77.0,63.5,29.81,NNE,23,3.6,6.9,63,0.00,,,0.11,WUHU216HW,2013-08-02 16:05:00,
2013-08-02 11:10:00,76.9,62.4,29.81,WNW,293,5.6,8.5,61,0.00,,,0.11,WUHU216HW,2013-08-02 16:10:00,
2013-08-02 11:15:00,77.4,61.9,29.81,North,0,3.4,8.5,59,0.00,,,0.11,WUHU216HW,2013-08-02 16:15:00,
2013-08-02 11:20:00,78.1,63.2,29.81,NNW,338,4.0,7.6,60,0.00,,,0.11,WUHU216HW,2013-08-02 16:20:00,
2013-08-02 11:25:00,77.9,61.5,29.81,NW,315,7.2,8.7,57,0.00,,,0.11,WUHU216HW,2013-08-02 16:25:00,
2013-08-02 11:29:00,77.8,62.8,29.81,NNW,338,3.4,8.7,60,0.00,,,0.11,WUHU216HW,2013-08-02 16:29:00,
2013-08-02 11:35:00,77.4,61.9,29.81,NW,315,7.6,9.4,59,0.00,,,0.11,WUHU216HW,2013-08-02 16:35:00,
2013-08-02 11:40:00,77.0,63.0,29.81,WNW,293,6.5,9.4,62,0.00,,,0.11,WUHU216HW,2013-08-02 16:40:00,
2013-08-02 11:45:00,77.4,60.9,29.81,NNW,338,6.9,9.2,57,0.00,,,0.11,WUHU216HW,2013-08-02 16:45:00,
2013-08-02 11:50:00,77.6,60.1,29.81,WNW,293,7.2,17.2,55,0.00,,,0.11,WUHU216HW,2013-08-02 16:50:00,
2013-08-02 11:55:00,78.1,61.1,29.81,NW,315,2.2,17.2,56,0.00,,,0.11,WUHU216HW,2013-08-02 16:55:00,
2013-08-02 12:00:00,78.5,60.0,29.81,WNW,293,4.0,9.8,53,0.00,,,0.11,WUHU216HW,2013-08-02 17:00:00,
2013-08-02 12:04:00,78.3,60.3,29.81,NW,315,8.1,8.5,54,0.00,,,0.11,WUHU216HW,2013-08-02 17:04:00,
2013-08-02 12:10:00,77.9,60.5,29.81,NW,315,10.5,10.5,55,0.00,,,0.11,WUHU216HW,2013-08-02 17:10:00,
2013-08-02 12:15:00,77.9,61.5,29.81,West,270,1.6,10.5,57,0.00,,,0.11,WUHU216HW,2013-08-02 17:15:00,
2013-08-02 12:20:00,77.9,58.4,29.82,WNW,293,6.5,10.5,51,0.00,,,0.11,WUHU216HW,2013-08-02 17:20:00,
2013-08-02 12:25:00,78.5,58.9,29.82,West,270,3.8,9.8,51,0.00,,,0.11,WUHU216HW,2013-08-02 17:25:00,
2013-08-02 12:30:00,79.9,57.8,29.82,West,270,6.9,8.1,47,0.00,,,0.11,WUHU216HW,2013-08-02 17:30:00,
2013-08-02 12:34:00,80.8,59.2,29.82,WSW,248,7.6,10.5,48,0.00,,,0.11,WUHU216HW,2013-08-02 17:34:00,
2013-08-02 12:40:00,81.4,57.9,29.82,WNW,293,5.4,12.1,45,0.00,,,0.11,WUHU216HW,2013-08-02 17:40:00,
2013-08-02 12:45:00,81.7,55.2,29.82,WNW,293,8.1,23.9,40,0.00,,,0.11,WUHU216HW,2013-08-02 17:45:00,
2013-08-02 12:50:00,81.0,55.7,29.82,WNW,293,6.3,23.9,42,0.00,,,0.11,WUHU216HW,2013-08-02 17:50:00,
2013-08-02 12:55:00,81.7,57.6,29.82,West,270,6.3,9.2,44,0.00,,,0.11,WUHU216HW,2013-08-02 17:55:00,
2013-08-02 13:00:00,82.1,59.1,29.81,WSW,248,10.5,10.5,46,0.00,,,0.11,WUHU216HW,2013-08-02 18:00:00,
2013-08-02 13:05:00,82.4,57.6,29.82,WSW,248,4.0,15.0,43,0.00,,,0.11,WUHU216HW,2013-08-02 18:05:00,
2013-08-02 13:10:00,81.9,58.4,29.82,NW,315,4.0,15.0,45,0.00,,,0.11,WUHU216HW,2013-08-02 18:10:00,
2013-08-02 13:15:00,81.4,58.5,29.82,WSW,248,3.6,7.4,46,0.00,,,0.11,WUHU216HW,2013-08-02 18:15:00,
2013-08-02 13:20:00,81.7,58.2,29.82,West,270,6.0,11.4,45,0.00,,,0.11,WUHU216HW,2013-08-02 18:20:00,
2013-08-02 13:25:00,81.7,58.9,29.82,West,270,5.1,11.4,46,0.00,,,0.11,WUHU216HW,2013-08-02 18:25:00,
2013-08-02 13:30:00,82.8,57.3,29.82,WNW,293,5.8,11.4,42,0.00,,,0.11,WUHU216HW,2013-08-02 18:30:00,
2013-08-02 13:35:00,82.3,58.1,29.81,West,270,4.7,11.0,44,0.00,,,0.11,WUHU216HW,2013-08-02 18:35:00,
2013-08-02 13:39:00,82.4,57.6,29.82,NW,315,4.0,10.5,43,0.00,,,0.11,WUHU216HW,2013-08-02 18:39:00,
2013-08-02 13:44:00,82.4,57.1,29.82,NNW,338,4.0,10.5,42,0.00,,,0.11,WUHU216HW,2013-08-02 18:44:00,
2013-08-02 13:49:00,82.8,57.3,29.82,North,0,6.0,10.7,42,0.00,,,0.11,WUHU216HW,2013-08-02 18:49:00,
2013-08-02 13:54:00,82.4,56.4,29.82,WSW,248,6.9,12.8,41,0.00,,,0.11,WUHU216HW,2013-08-02 18:54:00,
2013-08-02 13:59:00,82.8,57.3,29.81,West,270,5.6,12.8,42,0.00,,,0.11,WUHU216HW,2013-08-02 18:59:00,
2013-08-02 14:04:00,83.0,58.8,29.82,West,270,2.9,10.3,44,0.00,,,0.11,WUHU216HW,2013-08-02 19:04:00,
2013-08-02 14:09:00,83.3,58.5,29.81,NW,315,3.6,7.6,43,0.00,,,0.11,WUHU216HW,2013-08-02 19:09:00,
2013-08-02 14:14:00,82.4,58.2,29.81,SW,225,6.9,8.9,44,0.00,,,0.11,WUHU216HW,2013-08-02 19:14:00,
2013-08-02 14:19:00,82.6,57.8,29.81,WNW,293,7.4,8.9,43,0.00,,,0.11,WUHU216HW,2013-08-02 19:19:00,
2013-08-02 14:24:00,82.4,58.9,29.82,NW,315,5.1,7.4,45,0.00,,,0.11,WUHU216HW,2013-08-02 19:24:00,
2013-08-02 14:29:00,82.4,58.9,29.82,NNW,338,5.1,7.6,45,0.00,,,0.11,WUHU216HW,2013-08-02 19:29:00,
2013-08-02 14:34:00,82.1,58.0,29.82,WSW,248,9.2,9.2,44,0.00,,,0.11,WUHU216HW,2013-08-02 19:34:00,
2013-08-02 14:39:00,82.4,58.2,29.82,WSW,248,4.7,9.8,44,0.00,,,0.11,WUHU216HW,2013-08-02 19:39:00,
2013-08-02 14:44:00,82.6,57.8,29.82,NNW,338,4.0,9.8,43,0.00,,,0.11,WUHU216HW,2013-08-02 19:44:00,
2013-08-02 14:49:00,83.0,58.8,29.82,NW,315,2.5,8.3,44,0.00,,,0.11,WUHU216HW,2013-08-02 19:49:00,
2013-08-02 14:54:00,83.5,58.7,29.82,NW,315,5.6,7.2,43,0.00,,,0.11,WUHU216HW,2013-08-02 19:54:00,
2013-08-02 14:59:00,83.9,57.7,29.82,NW,315,6.5,8.7,41,0.00,,,0.11,WUHU216HW,2013-08-02 19:59:00,
2013-08-02 15:04:00,83.7,58.1,29.82,NNW,338,11.2,15.0,42,0.00,,,0.11,WUHU216HW,2013-08-02 20:04:00,
2013-08-02 15:09:00,83.0,57.5,29.82,NW,315,11.4,15.0,42,0.00,,,0.11,WUHU216HW,2013-08-02 20:09:00,
2013-08-02 15:14:00,82.1,56.1,29.82,North,0,5.4,14.3,41,0.00,,,0.11,WUHU216HW,2013-08-02 20:14:00,
2013-08-02 15:19:00,81.7,56.3,29.82,NW,315,4.7,11.4,42,0.00,,,0.11,WUHU216HW,2013-08-02 20:19:00,
2013-08-02 15:24:00,81.4,55.4,29.82,North,0,13.2,18.3,41,0.00,,,0.11,WUHU216HW,2013-08-02 20:24:00,
2013-08-02 15:29:00,81.0,57.0,29.82,WSW,248,7.2,18.3,44,0.00,,,0.11,WUHU216HW,2013-08-02 20:29:00,
2013-08-02 15:34:00,81.0,55.1,29.82,NW,315,4.7,16.3,41,0.00,,,0.11,WUHU216HW,2013-08-02 20:34:00,
2013-08-02 15:39:00,80.8,52.8,29.82,NW,315,15.0,15.0,38,0.00,,,0.11,WUHU216HW,2013-08-02 20:39:00,
2013-08-02 15:44:00,81.5,52.7,29.82,NW,315,6.3,22.1,37,0.00,,,0.11,WUHU216HW,2013-08-02 20:44:00,
2013-08-02 15:49:00,81.9,54.6,29.82,NW,315,7.6,22.1,39,0.00,,,0.11,WUHU216HW,2013-08-02 20:49:00,
2013-08-02 15:54:00,82.6,56.0,29.83,South,180,6.7,13.2,40,0.00,,,0.11,WUHU216HW,2013-08-02 20:54:00,
2013-08-02 15:59:00,83.0,56.3,29.83,NW,315,6.0,11.6,40,0.00,,,0.11,WUHU216HW,2013-08-02 20:59:00,
2013-08-02 16:04:00,83.0,56.9,29.82,West,270,4.0,9.6,41,0.00,,,0.11,WUHU216HW,2013-08-02 21:04:00,
2013-08-02 16:09:00,81.9,55.4,29.82,NNW,338,5.4,9.2,40,0.00,,,0.11,WUHU216HW,2013-08-02 21:09:00,
2013-08-02 16:14:00,81.0,55.1,29.82,NW,315,8.7,11.2,41,0.00,,,0.11,WUHU216HW,2013-08-02 21:14:00,
2013-08-02 16:19:00,81.0,56.3,29.82,NW,315,6.0,16.3,43,0.00,,,0.11,WUHU216HW,2013-08-02 21:19:00,
2013-08-02 16:24:00,80.5,55.9,29.82,NW,315,9.2,16.3,43,0.00,,,0.11,WUHU216HW,2013-08-02 21:24:00,
2013-08-02 16:29:00,80.3,55.7,29.82,WSW,248,5.6,15.0,43,0.00,,,0.11,WUHU216HW,2013-08-02 21:29:00,
2013-08-02 16:34:00,80.8,56.2,29.82,West,270,7.8,9.4,43,0.00,,,0.11,WUHU216HW,2013-08-02 21:34:00,
2013-08-02 16:39:00,81.4,57.2,29.82,NW,315,4.3,9.4,44,0.00,,,0.11,WUHU216HW,2013-08-02 21:39:00,
2013-08-02 16:44:00,82.4,56.4,29.82,NNW,338,4.3,9.2,41,0.00,,,0.11,WUHU216HW,2013-08-02 21:44:00,
2013-08-02 16:49:00,82.8,57.3,29.82,NNW,338,3.4,9.8,42,0.00,,,0.11,WUHU216HW,2013-08-02 21:49:00,
2013-08-02 16:54:00,82.6,56.6,29.82,North,0,4.7,9.8,41,0.00,,,0.11,WUHU216HW,2013-08-02 21:54:00,
2013-08-02 16:59:00,82.1,56.7,29.82,NNW,338,8.5,11.2,42,0.00,,,0.11,WUHU216HW,2013-08-02 21:59:00,
2013-08-02 17:04:00,80.8,57.4,29.82,WNW,293,8.3,13.9,45,0.00,,,0.11,WUHU216HW,2013-08-02 22:04:00,
2013-08-02 17:09:00,80.6,57.2,29.82,NW,315,5.4,13.9,45,0.00,,,0.11,WUHU216HW,2013-08-02 22:09:00,
2013-08-02 17:14:00,80.1,56.8,29.82,NW,315,11.6,13.6,45,0.00,,,0.11,WUHU216HW,2013-08-02 22:14:00,
2013-08-02 17:19:00,79.7,57.1,29.82,West,270,4.7,17.9,46,0.00,,,0.11,WUHU216HW,2013-08-02 22:19:00,
2013-08-02 17:24:00,79.6,56.9,29.82,WSW,248,1.3,17.9,46,0.00,,,0.11,WUHU216HW,2013-08-02 22:24:00,
2013-08-02 17:29:00,78.7,55.4,29.83,NW,315,5.4,11.2,45,0.00,,,0.11,WUHU216HW,2013-08-02 22:29:00,
2013-08-02 17:34:00,78.1,55.6,29.83,WNW,293,5.4,9.8,46,0.00,,,0.11,WUHU216HW,2013-08-02 22:34:00,
2013-08-02 17:39:00,78.8,55.6,29.83,WNW,293,6.5,9.8,45,0.00,,,0.11,WUHU216HW,2013-08-02 22:39:00,
2013-08-02 17:44:00,79.2,56.0,29.83,NNW,338,2.7,9.6,45,0.00,,,0.11,WUHU216HW,2013-08-02 22:44:00,
2013-08-02 17:49:00,79.2,56.0,29.83,NW,315,7.2,11.4,45,0.00,,,0.11,WUHU216HW,2013-08-02 22:49:00,
2013-08-02 17:54:00,78.1,55.6,29.83,WNW,293,4.7,11.4,46,0.00,,,0.11,WUHU216HW,2013-08-02 22:54:00,
2013-08-02 17:59:00,77.4,54.9,29.83,NW,315,8.7,11.4,46,0.00,,,0.11,WUHU216HW,2013-08-02 22:59:00,
2013-08-02 18:04:00,77.0,55.3,29.83,WSW,248,4.7,11.4,47,0.00,,,0.11,WUHU216HW,2013-08-02 23:04:00,
2013-08-02 18:09:00,76.9,55.7,29.83,WNW,293,4.7,8.7,48,0.00,,,0.11,WUHU216HW,2013-08-02 23:09:00,
2013-08-02 18:14:00,76.7,56.2,29.83,WNW,293,3.4,6.3,49,0.00,,,0.11,WUHU216HW,2013-08-02 23:14:00,
2013-08-02 18:19:00,76.3,55.8,29.84,West,270,3.6,7.8,49,0.00,,,0.11,WUHU216HW,2013-08-02 23:19:00,
2013-08-02 18:24:00,76.0,55.4,29.84,NW,315,6.3,8.5,49,0.00,,,0.11,WUHU216HW,2013-08-02 23:24:00,
2013-08-02 18:29:00,76.5,55.4,29.84,WNW,293,10.1,10.1,48,0.00,,,0.11,WUHU216HW,2013-08-02 23:29:00,
2013-08-02 18:34:00,76.9,55.7,29.84,NW,315,3.4,10.1,48,0.00,,,0.11,WUHU216HW,2013-08-02 23:34:00,
2013-08-02 18:39:00,76.9,55.7,29.84,WNW,293,2.0,10.1,48,0.00,,,0.11,WUHU216HW,2013-08-02 23:39:00,
2013-08-02 18:44:00,76.1,55.6,29.84,NW,315,1.1,7.8,49,0.00,,,0.11,WUHU216HW,2013-08-02 23:44:00,
2013-08-02 18:49:00,75.8,55.4,29.84,WNW,293,3.8,5.4,49,0.00,,,0.11,WUHU216HW,2013-08-02 23:49:00,
2013-08-02 18:54:00,75.2,55.4,29.85,NW,315,1.8,5.4,50,0.00,,,0.11,WUHU216HW,2013-08-02 23:54:00,
2013-08-02 18:59:00,74.9,55.1,29.85,North,0,4.9,8.5,50,0.00,,,0.11,WUHU216HW,2013-08-02 23:59:00,
2013-08-02 19:04:00,74.5,55.3,29.86,NW,315,4.7,8.5,51,0.00,,,0.11,WUHU216HW,2013-08-03 00:04:00,
2013-08-02 19:09:00,74.5,55.3,29.86,ENE,68,4.5,5.8,51,0.00,,,0.11,WUHU216HW,2013-08-03 00:09:00,
2013-08-02 19:14:00,74.3,55.5,29.86,NNW,338,2.2,5.8,52,0.00,,,0.11,WUHU216HW,2013-08-03 00:14:00,
2013-08-02 19:19:00,74.2,55.4,29.86,North,0,1.8,5.6,52,0.00,,,0.11,WUHU216HW,2013-08-03 00:19:00,
2013-08-02 19:24:00,73.8,55.0,29.86,North,0,2.5,5.4,52,0.00,,,0.11,WUHU216HW,2013-08-03 00:24:00,
2013-08-02 19:29:00,74.2,55.4,29.86,NNW,338,1.1,4.7,52,0.00,,,0.11,WUHU216HW,2013-08-03 00:29:00,
2013-08-02 19:34:00,74.2,55.9,29.86,NW,315,1.1,4.7,53,0.00,,,0.11,WUHU216HW,2013-08-03 00:34:00,
2013-08-02 19:39:00,73.8,55.5,29.86,WNW,293,3.1,3.8,53,0.00,,,0.11,WUHU216HW,2013-08-03 00:39:00,
2013-08-02 19:44:00,73.4,55.6,29.86,WNW,293,2.0,6.3,54,0.00,,,0.11,WUHU216HW,2013-08-03 00:44:00,
2013-08-02 19:49:00,73.1,55.4,29.86,NW,315,4.5,6.3,54,0.00,,,0.11,WUHU216HW,2013-08-03 00:49:00,
2013-08-02 19:54:00,72.9,55.7,29.87,WNW,293,1.8,4.7,55,0.00,,,0.11,WUHU216HW,2013-08-03 00:54:00,
2013-08-02 19:59:00,72.5,55.4,29.87,North,0,4.7,6.3,55,0.00,,,0.11,WUHU216HW,2013-08-03 00:59:00,
2013-08-02 20:04:00,72.4,55.2,29.87,North,0,2.2,6.3,55,0.00,,,0.11,WUHU216HW,2013-08-03 01:04:00,
2013-08-02 20:09:00,72.4,55.2,29.86,NNW,338,0.9,5.4,55,0.00,,,0.11,WUHU216HW,2013-08-03 01:09:00,
2013-08-02 20:14:00,72.4,55.7,29.87,NNW,338,1.6,5.4,56,0.00,,,0.11,WUHU216HW,2013-08-03 01:14:00,
2013-08-02 20:19:00,72.4,55.7,29.87,NW,315,4.5,4.7,56,0.00,,,0.11,WUHU216HW,2013-08-03 01:19:00,
2013-08-02 20:24:00,72.4,55.7,29.87,NW,315,2.9,4.7,56,0.00,,,0.11,WUHU216HW,2013-08-03 01:24:00,
2013-08-02 20:29:00,72.0,55.4,29.87,North,0,2.2,4.5,56,0.00,,,0.11,WUHU216HW,2013-08-03 01:29:00,
2013-08-02 20:34:00,71.6,55.5,29.87,NNW,338,1.3,3.6,57,0.00,,,0.11,WUHU216HW,2013-08-03 01:34:00,
2013-08-02 20:39:00,71.5,55.4,29.87,NW,315,1.1,3.4,57,0.00,,,0.11,WUHU216HW,2013-08-03 01:39:00,
2013-08-02 20:44:00,71.1,55.1,29.87,NNE,23,3.4,3.4,57,0.00,,,0.11,WUHU216HW,2013-08-03 01:44:00,
2013-08-02 20:49:00,70.9,55.5,29.87,North,0,2.5,3.4,58,0.00,,,0.11,WUHU216HW,2013-08-03 01:49:00,
2013-08-02 20:54:00,70.7,55.7,29.88,NNW,338,3.6,3.6,59,0.00,,,0.11,WUHU216HW,2013-08-03 01:54:00,
2013-08-02 20:59:00,70.6,55.6,29.88,North,0,2.5,3.6,59,0.00,,,0.11,WUHU216HW,2013-08-03 01:59:00,
2013-08-02 21:04:00,70.4,54.9,29.88,North,0,1.8,4.0,58,0.00,,,0.11,WUHU216HW,2013-08-03 02:04:00,
2013-08-02 21:09:00,70.2,54.7,29.88,NNE,23,4.0,5.4,58,0.00,,,0.11,WUHU216HW,2013-08-03 02:09:00,
2013-08-02 21:14:00,70.2,55.3,29.88,WNW,293,1.3,5.4,59,0.00,,,0.11,WUHU216HW,2013-08-03 02:14:00,
2013-08-02 21:19:00,70.0,55.1,29.88,NNE,23,2.0,4.3,59,0.00,,,0.11,WUHU216HW,2013-08-03 02:19:00,
2013-08-02 21:24:00,69.8,54.9,29.89,North,0,1.8,3.8,59,0.00,,,0.11,WUHU216HW,2013-08-03 02:24:00,
2013-08-02 21:29:00,69.7,54.7,29.89,NW,315,2.2,3.8,59,0.00,,,0.11,WUHU216HW,2013-08-03 02:29:00,
2013-08-02 21:34:00,69.5,54.5,29.89,NW,315,1.8,4.7,59,0.00,,,0.11,WUHU216HW,2013-08-03 02:34:00,
2013-08-02 21:39:00,69.5,54.5,29.90,NW,315,3.4,4.7,59,0.00,,,0.11,WUHU216HW,2013-08-03 02:39:00,
2013-08-02 21:44:00,69.3,53.9,29.90,North,0,3.1,4.9,58,0.00,,,0.11,WUHU216HW,2013-08-03 02:44:00,
2013-08-02 21:49:00,69.3,53.9,29.89,NNE,23,5.4,5.4,58,0.00,,,0.11,WUHU216HW,2013-08-03 02:49:00,
2013-08-02 21:54:00,69.1,53.2,29.89,NNW,338,4.0,5.4,57,0.00,,,0.11,WUHU216HW,2013-08-03 02:54:00,
2013-08-02 21:59:00,69.1,53.2,29.89,North,0,1.3,5.4,57,0.00,,,0.11,WUHU216HW,2013-08-03 02:59:00,
2013-08-02 22:04:00,68.9,53.0,29.89,North,0,3.4,4.7,57,0.00,,,0.11,WUHU216HW,2013-08-03 03:04:00,
2013-08-02 22:09:00,68.9,53.0,29.89,NNE,23,5.6,5.6,57,0.00,,,0.11,WUHU216HW,2013-08-03 03:09:00,
2013-08-02 22:14:00,68.8,52.9,29.89,North,0,1.1,5.6,57,0.00,,,0.11,WUHU216HW,2013-08-03 03:14:00,
2013-08-02 22:19:00,68.8,53.4,29.89,NNW,338,1.6,5.6,58,0.00,,,0.11,WUHU216HW,2013-08-03 03:19:00,
2013-08-02 22:24:00,68.4,53.0,29.90,North,0,3.6,4.7,58,0.00,,,0.11,WUHU216HW,2013-08-03 03:24:00,
2013-08-02 22:29:00,68.2,52.8,29.90,North,0,1.3,4.7,58,0.00,,,0.11,WUHU216HW,2013-08-03 03:29:00,
2013-08-02 22:34:00,68.0,53.2,29.90,NNW,338,1.6,3.6,59,0.00,,,0.11,WUHU216HW,2013-08-03 03:34:00,
2013-08-02 22:39:00,67.5,53.2,29.90,NNW,338,3.1,3.4,60,0.00,,,0.11,WUHU216HW,2013-08-03 03:39:00,
2013-08-02 22:44:00,67.1,53.3,29.90,NNW,338,1.8,3.4,61,0.00,,,0.11,WUHU216HW,2013-08-03 03:44:00,
2013-08-02 22:49:00,67.0,53.1,29.90,NNE,23,2.0,3.6,61,0.00,,,0.11,WUHU216HW,2013-08-03 03:49:00,
2013-08-02 22:54:00,66.6,52.7,29.90,NNW,338,2.0,3.6,61,0.00,,,0.11,WUHU216HW,2013-08-03 03:54:00,
2013-08-02 22:59:00,66.2,52.8,29.90,NNW,338,1.6,4.5,62,0.00,,,0.11,WUHU216HW,2013-08-03 03:59:00,
2013-08-02 23:01:00,66.2,52.8,29.90,NNW,338,2.5,4.7,62,0.00,,,0.11,WUHU216HW,2013-08-03 04:01:00,
2013-08-02 23:06:00,65.9,52.5,29.90,NE,45,3.4,4.7,62,0.00,,,0.11,WUHU216HW,2013-08-03 04:06:00,
2013-08-02 23:11:00,65.9,52.5,29.90,North,0,3.8,5.4,62,0.00,,,0.11,WUHU216HW,2013-08-03 04:11:00,
2013-08-02 23:16:00,65.9,52.5,29.90,North,0,4.0,5.4,62,0.00,,,0.11,WUHU216HW,2013-08-03 04:16:00,
2013-08-02 23:21:00,65.7,52.3,29.90,North,0,4.0,6.0,62,0.00,,,0.11,WUHU216HW,2013-08-03 04:21:00,
2013-08-02 23:26:00,65.9,52.5,29.90,North,0,2.5,6.0,62,0.00,,,0.11,WUHU216HW,2013-08-03 04:26:00,
2013-08-02 23:31:00,65.7,52.3,29.90,NNW,338,1.8,4.9,62,0.00,,,0.11,WUHU216HW,2013-08-03 04:31:00,
2013-08-02 23:36:00,65.5,52.6,29.90,North,0,3.8,4.9,63,0.00,,,0.11,WUHU216HW,2013-08-03 04:36:00,
2013-08-02 23:41:00,65.3,52.4,29.90,NNW,338,1.8,4.9,63,0.00,,,0.11,WUHU216HW,2013-08-03 04:41:00,
2013-08-02 23:46:00,65.2,52.7,29.90,NNW,338,3.8,4.3,64,0.00,,,0.11,WUHU216HW,2013-08-03 04:46:00,
2013-08-02 23:51:00,64.8,52.3,29.91,NW,315,4.0,4.0,64,0.00,,,0.11,WUHU216HW,2013-08-03 04:51:00,
2013-08-02 23:56:00,64.6,52.6,29.91,NNE,23,4.0,4.0,65,0.00,,,0.11,WUHU216HW,2013-08-03 04:56:00,